PI8ANH-13 Weather Reports


Display with metric or nautical units.
time (UTC)temp
F
wind
direction
speed
MPH
gust
MPH
rain 1hr
in
rain 24hr
in
rain mn
in
humidity
%
barometer
mb
20260506042957 48 350 8.0 0.0 0.00 0.00 0.00 87 1007.0
20260506041457 48 350 8.0 0.0 0.00 0.00 0.00 87 1007.0
20260506035958 46 350 7.0 0.0 0.00 0.00 0.00 93 1007.0
20260506034457 46 350 7.0 0.0 0.00 0.00 0.00 93 1007.0
20260506032957 46 360 9.0 0.0 0.00 0.00 0.00 93 1008.0
20260506031458 46 360 9.0 0.0 0.00 0.00 0.00 93 1008.0
20260506025957 46 360 10.0 0.0 0.00 0.00 0.00 93 1008.0
20260506024458 46 360 10.0 0.0 0.00 0.00 0.00 93 1008.0
20260506022958 46 360 9.0 0.0 0.00 0.00 0.00 93 1008.0
20260506021458 46 360 9.0 0.0 0.00 0.00 0.00 93 1008.0
20260506015958 46 360 9.0 0.0 0.00 0.00 0.00 93 1008.0
20260506014457 46 360 9.0 0.0 0.00 0.00 0.00 93 1008.0
20260506012957 46 360 13.0 0.0 0.00 0.00 0.00 87 1008.0
20260506011457 46 360 13.0 0.0 0.00 0.00 0.00 87 1008.0
20260506005957 48 10 12.0 0.0 0.00 0.00 0.00 81 1008.0
20260506004457 48 10 12.0 0.0 0.00 0.00 0.00 81 1008.0
20260506002957 48 10 13.0 0.0 0.00 0.00 0.00 87 1009.0
20260506001457 48 10 13.0 0.0 0.00 0.00 0.00 87 1009.0
20260505235957 48 10 13.0 0.0 0.00 0.00 0.00 87 1009.0
20260505234458 48 10 13.0 0.0 0.00 0.00 0.00 87 1009.0
20260505232958 48 360 12.0 0.0 0.00 0.00 0.00 81 1009.0
20260505231457 48 360 12.0 0.0 0.00 0.00 0.00 81 1009.0
20260505225958 50 10 12.0 0.0 0.00 0.00 0.00 76 1009.0
20260505224457 50 10 12.0 0.0 0.00 0.00 0.00 76 1009.0
20260505222957 50 360 12.0 0.0 0.00 0.00 0.00 76 1009.0
20260505221458 50 360 12.0 0.0 0.00 0.00 0.00 76 1009.0
20260505215957 50 360 10.0 0.0 0.00 0.00 0.00 82 1009.0
20260505214457 50 360 10.0 0.0 0.00 0.00 0.00 82 1009.0
20260505212957 50 360 12.0 0.0 0.00 0.00 0.00 82 1009.0
20260505211458 50 360 12.0 0.0 0.00 0.00 0.00 82 1009.0
20260505205957 50 10 13.0 0.0 0.00 0.00 0.00 82 1009.0
20260505204458 50 10 13.0 0.0 0.00 0.00 0.00 82 1009.0
20260505202957 50 10 12.0 0.0 0.00 0.00 0.00 82 1009.0
20260505201457 50 10 12.0 0.0 0.00 0.00 0.00 82 1009.0
20260505195957 50 10 12.0 0.0 0.00 0.00 0.00 82 1009.0
20260505194458 50 10 12.0 0.0 0.00 0.00 0.00 82 1009.0
20260505192958 52 10 8.0 0.0 0.00 0.00 0.00 76 1009.0
20260505191458 52 10 8.0 0.0 0.00 0.00 0.00 76 1009.0
20260505185957 52 10 9.0 0.0 0.00 0.00 0.00 82 1009.0
20260505184457 52 10 9.0 0.0 0.00 0.00 0.00 82 1009.0
20260505182957 52 20 12.0 0.0 0.00 0.00 0.00 82 1009.0
20260505181459 52 20 12.0 0.0 0.00 0.00 0.00 82 1009.0
20260505175957 52 10 13.0 0.0 0.00 0.00 0.00 82 1009.0
20260505174458 52 10 13.0 0.0 0.00 0.00 0.00 82 1009.0
20260505172957 52 20 13.0 0.0 0.00 0.00 0.00 76 1009.0
20260505171457 52 20 13.0 0.0 0.00 0.00 0.00 76 1009.0
20260505165958 54 10 13.0 0.0 0.00 0.00 0.00 77 1009.0
20260505164457 54 10 13.0 0.0 0.00 0.00 0.00 77 1009.0
20260505162957 54 360 12.0 0.0 0.00 0.00 0.00 77 1009.0
20260505161457 54 360 12.0 0.0 0.00 0.00 0.00 77 1009.0
20260505152958 54 20 9.0 0.0 0.00 0.00 0.00 77 1010.0
20260505151457 54 20 9.0 0.0 0.00 0.00 0.00 77 1010.0
20260505124457 52 20 9.0 0.0 0.00 0.00 0.00 82 1010.0
20260505122957 52 20 8.0 0.0 0.00 0.00 0.00 82 1011.0
20260505121457 52 20 8.0 0.0 0.00 0.00 0.00 82 1011.0
20260505115958 52 30 9.0 0.0 0.00 0.00 0.00 82 1011.0
20260505114457 52 30 9.0 0.0 0.00 0.00 0.00 82 1011.0
20260505112958 52 30 9.0 0.0 0.00 0.00 0.00 82 1011.0
20260505111457 52 30 9.0 0.0 0.00 0.00 0.00 82 1011.0
20260505101457 50 20 10.0 0.0 0.00 0.00 0.00 87 1011.0
20260505095957 50 20 9.0 0.0 0.00 0.00 0.00 87 1011.0
20260505094458 50 20 9.0 0.0 0.00 0.00 0.00 87 1011.0
20260505092957 48 30 8.0 0.0 0.00 0.00 0.00 93 1011.0
20260505091457 48 30 8.0 0.0 0.00 0.00 0.00 93 1011.0
20260505085957 48 20 7.0 0.0 0.00 0.00 0.00 87 1011.0
20260505084457 48 20 7.0 0.0 0.00 0.00 0.00 87 1011.0
20260505082957 48 30 10.0 0.0 0.00 0.00 0.00 87 1011.0
20260505081458 48 30 10.0 0.0 0.00 0.00 0.00 87 1011.0
20260505075957 48 20 9.0 0.0 0.00 0.00 0.00 93 1011.0
20260505074457 48 20 9.0 0.0 0.00 0.00 0.00 93 1011.0
20260505072957 46 10 12.0 0.0 0.00 0.00 0.00 100 1011.0
20260505071457 46 10 12.0 0.0 0.00 0.00 0.00 100 1011.0
20260505065957 48 10 9.0 0.0 0.00 0.00 0.00 87 1012.0
20260505064458 48 10 9.0 0.0 0.00 0.00 0.00 87 1012.0
20260505062957 48 10 8.0 0.0 0.00 0.00 0.00 87 1011.0
20260505061458 48 10 8.0 0.0 0.00 0.00 0.00 87 1011.0
20260505055957 46 10 7.0 0.0 0.00 0.00 0.00 93 1011.0
20260505054457 46 10 7.0 0.0 0.00 0.00 0.00 93 1011.0
20260505052958 48 20 7.0 0.0 0.00 0.00 0.00 87 1011.0
20260505051457 48 20 7.0 0.0 0.00 0.00 0.00 87 1011.0